Location: Chequamegon National Forest
(46.1070°N, 90.8420°W)
Time: 09:53:31
(UTC-05:00)

Daily predictions for brighter satellites

Satellite Brightness Start Highest point End
(mag) Time Altitude Azimuth Time Altitude Azimuth Time Altitude Azimuth
Sich 1 3.1 20:21:42 10° N 20:25:57 61° ENE 20:30:10 10° SSE
ATLAS 2AS CENTAUR R/B 3.2 20:19:11 10° NW 20:27:10 64° NE 20:34:32 10° SE
Cosmos 1151 Rocket 4.4 20:27:11 10° SE 20:30:16 20° E 20:33:22 10° NE
Spot 2 Rocket 3.9 20:28:20 10° SE 20:33:10 46° ENE 20:38:02 10° N
Lacrosse 5 3.9 20:30:45 10° WNW 20:34:52 24° N 20:39:00 10° NE
Cosmos 1300 3.8 20:31:19 10° SSW 20:35:02 49° WNW 20:38:47 10° N
BREEZE-M DEB (TANK) 3.4 20:25:44 10° WSW 20:36:54 75° NNW 20:40:08 10° ENE
Nadezhda 3 Rocket 4.0 20:32:24 10° N 20:38:44 75° E 20:45:04 10° SSE
Cosmos 2360 Rocket 3.3 20:38:19 10° SW 20:43:47 51° WNW 20:49:17 10° NNE
Cosmos 1980 4.5 20:40:03 10° SSE 20:44:54 30° ESE 20:49:46 10° NE
Cosmos 1633 Rocket 3.0 20:42:02 10° N 20:46:23 75° E 20:50:44 10° SSE
Meteor 2-14 Rocket 4.4 20:42:11 10° S 20:48:12 66° E 20:54:16 10° NNE
Meteor 1-27 4.3 20:46:29 10° S 20:52:05 57° E 20:57:37 10° NNE
Cosmos 2333 Rocket 2.3 20:47:45 10° S 20:53:14 54° ESE 20:58:44 10° NE
NOSS 2-1 (E) 3.1 20:49:45 10° SSW 20:53:24 81° SE 20:57:36 10° NE
Meteor 2-2 Rocket 4.3 20:50:46 10° S 20:56:38 83° E 21:02:38 10° NNE
Meteor 2-16 Rocket 4.5 20:51:38 10° S 20:57:40 64° E 21:03:44 10° NNE
COSMOS 2428 2.8 20:52:41 10° SSW 20:58:26 86° WNW 21:04:12 10° NNE
Cosmos 1455 2.2 20:55:06 10° S 20:58:53 65° E 21:02:44 10° NNE
Cosmos 1408 3.2 20:55:38 10° N 20:59:03 37° ENE 21:01:43 15° SE
Cosmos 2228 Rocket 3.5 20:54:59 10° SSE 20:59:06 41° E 21:03:14 10° NNE
Cosmos 1844 Rocket 3.4 20:53:34 10° NW 20:59:06 53° WSW 21:04:34 10° S
Cosmos 1515 Rocket 4.0 20:55:07 10° SSE 20:59:19 42° E 21:03:32 10° NNE
Cosmos 2333 4.4 20:55:13 10° SSW 21:00:52 80° WNW 21:06:31 10° NNE
ERS-2 3.6 20:57:41 10° S 21:01:07 38° W 21:04:36 10° NNW
BREEZE-M DEB (TANK) 4.4 20:57:03 10° WSW 21:02:06 72° SSE 21:24:29 10° ENE
Cosmos 1844 4.1 20:57:06 10° NNW 21:02:44 64° WSW 21:08:23 10° SSE
Cosmos 1892 3.2 20:59:15 10° NNW 21:03:07 61° W 21:06:56 10° S
NOSS 3-3 (A) 3.9 21:00:30 10° SSW 21:06:30 71° SE 21:13:09 10° NE
NOSS 3-3 (C) 3.9 21:00:36 10° SSW 21:06:37 71° ESE 21:13:15 10° NE
SL-8 R/B 4.4 21:04:40 10° SSW 21:08:52 31° SE 21:12:51 11° E
H-2A R/B 2.8 21:07:50 16° ESE 21:11:05 33° ENE 21:15:30 10° N
Cosmos 2219 Rocket 2.2 21:06:08 10° SSW 21:11:48 86° ESE 21:17:29 10° NNE
Cosmos 2237 Rocket 2.4 21:07:05 10° S 21:12:23 45° ESE 21:17:44 10° NE
USA 267 4.3 21:08:17 10° ENE 21:12:58 20° ESE 21:17:37 10° S
ERS-1 Rocket 3.9 21:10:13 17° ESE 21:13:17 32° ENE 21:17:42 10° N
MetOp-A 4.5 21:12:26 16° SE 21:16:25 48° ENE 21:21:33 10° N
Cosmos 2154 Rocket 4.5 21:11:20 10° SSW 21:17:32 64° WNW 21:23:44 10° N
Genesis I 3.4 21:13:33 10° NW 21:17:38 72° WSW 21:20:28 19° SSE
YAOGAN 6 4.1 21:14:39 10° SSW 21:17:59 35° W 21:21:23 10° NNW
Cosmos 2278 Rocket 2.2 21:13:28 10° NNW 21:19:11 80° ENE 21:23:35 17° SSE
Cosmos 1328 Rocket 3.6 21:14:50 10° S 21:19:15 84° W 21:23:43 10° N
Resurs 01 Rocket 2.6 21:17:57 10° S 21:22:15 48° W 21:26:34 10° NNW
ATLAS 5 CENTAUR R/B 4.3 21:21:42 10° NNW 21:25:23 18° NNE 21:29:20 10° ENE
NOAA 11 4.4 21:21:06 10° S 21:26:35 75° WSW 21:32:08 10° NNW
SL-08 RB Rocket 4.2 21:24:45 23° SE 21:27:04 42° ENE 21:31:17 10° N
Cosmos 1727 Rocket 4.2 21:21:35 10° N 21:27:35 50° ENE 21:31:35 21° SE
Cosmos 405 Rocket 4.4 21:28:05 18° E 21:28:05 18° E 21:30:27 10° NE
Cosmos 1470 Rocket 3.7 21:24:09 10° NNW 21:28:33 75° W 21:32:40 12° S
Cosmos 1959 Rocket 4.5 21:24:39 10° S 21:30:43 63° E 21:36:46 10° NNE
ATLAS CENTAUR R/B 1.0 21:29:52 10° SW 21:33:32 89° SSE 21:37:25 10° NE
Cosmos 2341 Rocket 4.5 21:33:06 10° SSW 21:39:24 65° WNW 21:45:42 10° N
Cosmos 2056 Rocket 3.9 21:35:44 15° S 21:39:52 43° ESE 21:44:58 10° NNE
Cosmos 2098 Rocket 3.0 21:39:29 18° S 21:42:49 61° E 21:46:35 10° NNE
Cosmos 1825 2.4 21:40:32 10° NNW 21:44:19 69° W 21:46:31 23° S
Cosmos 2218 Rocket 4.0 21:39:16 10° S 21:45:37 82° E 21:52:04 10° N
Cosmos 405 3.1 21:44:04 10° N 21:47:32 56° ENE 21:48:07 48° ESE
SL-08 R/B 4.5 21:42:01 11° S 21:48:02 70° E 21:54:26 10° NNE
USA 234 4.2 21:43:06 11° E 21:48:58 41° NNE 21:55:00 10° NW
OE (NEXTSAT) 4.3 21:48:32 10° W 21:52:07 86° S 21:52:59 49° E
NOSS 0 Rocket 4.0 21:47:12 10° SSW 21:53:22 79° WNW 21:59:38 10° NNE
BREEZE-M DEB (TANK) 3.9 21:52:49 10° W 21:55:26 20° SW 21:55:37 20° SW
Cosmos 1624 Rocket 3.9 21:52:46 15° S 21:56:59 63° ESE 22:02:08 10° NNE
Cosmos 2366 rocket 4.0 21:52:16 10° S 21:58:29 89° W 22:04:50 10° N
Cosmos 1190 Rocket 3.9 21:53:16 10° NNW 21:58:36 78° ENE 22:00:47 36° SSE
TRAILBLAZER 4.5 21:54:56 10° SSW 21:59:29 72° ESE 22:04:10 10° NE
SL-16 R/B 2.4 21:59:34 31° SSE 22:01:49 46° ESE 22:07:12 10° NE
Cosmos 2344 4.1 21:58:41 25° SSE 22:01:56 36° ESE 22:09:09 10° NE
BREEZE-M DEB (TANK) 3.2 22:02:17 10° WNW 22:04:23 31° WSW 22:04:23 31° WSW
GEOS 3 Rocket 3.7 21:59:58 10° NE 22:05:13 53° ESE 22:10:21 10° SSW
Cosmos 1140 Rocket 3.9 22:00:21 10° NNW 22:05:22 47° ENE 22:06:45 38° ESE
Cosmos 1869 3.7 22:02:49 19° SSW 22:05:34 63° W 22:09:35 10° N
Terra 2.9 22:05:06 28° E 22:05:51 29° ENE 22:09:58 10° N
Cosmos 1151 Rocket 4.3 22:03:33 10° SW 22:07:32 38° WNW 22:11:34 10° N
CZ-4C R/B 4.2 22:13:19 13° ENE 22:13:19 13° ENE 22:14:13 10° ENE
ARGOS 3.5 22:07:10 24° S 22:10:24 62° WSW 22:15:44 10° NNW
Cosmos 1943 Rocket 4.0 22:07:22 10° N 22:11:02 18° NE 22:13:21 14° ENE
Cosmos 1954 Rocket 4.2 22:06:49 10° NNW 22:11:58 54° ENE 22:13:15 43° ESE
Cosmos 1707 Rocket 3.6 22:13:35 52° E 22:13:38 52° E 22:17:51 10° NNE
CZ-2C R/B 4.2 22:14:25 23° ENE 22:14:54 23° ENE 22:18:40 10° NNE
MetOp-B 4.4 22:12:10 27° S 22:15:04 64° WSW 22:20:24 10° NNW
ATLAS 2AS CENTAUR R/B 4.0 22:10:49 10° NW 22:17:46 36° WSW 22:22:42 17° SSW
Lacrosse 5 3.4 22:14:38 10° NW 22:19:08 30° NNE 22:21:58 18° ENE
Cosmos 1869 Rocket 3.5 22:15:05 10° N 22:19:29 82° W 22:20:24 55° S
SPOT 5 2.6 22:19:19 57° SE 22:20:12 76° ENE 22:24:41 10° N
Helios 1B rocket 2.9 22:16:22 10° NNE 22:19:46 44° ENE 22:19:46 44° ENE
DMSP B5D2-2 4.0 22:25:08 10° NNE 22:30:25 74° ESE 22:31:42 51° S
Cosmos 2297 3.8 22:24:45 10° NNW 22:30:25 72° WSW 22:32:07 46° S
CARTOSAT-1 3.8 22:31:42 52° ENE 22:31:42 52° ENE 22:35:49 10° N
Cosmos 1733 Rocket 3.8 22:27:39 10° N 22:31:26 39° ENE 22:31:26 39° ENE
Meteor 2-10 Rocket 4.2 22:27:11 14° SSW 22:32:03 61° WNW 22:37:51 10° N
Cosmos 1441 Rocket 3.4 22:34:51 67° WNW 22:34:51 67° WNW 22:38:31 10° N
Helios 1A 3.3 22:35:50 53° SW 22:36:22 58° WSW 22:40:32 10° NNW
Cosmos 2333 Rocket 4.2 22:32:57 10° WSW 22:37:49 29° NW 22:42:42 10° N
Cosmos 2369 Rocket 3.2 22:33:54 10° NNW 22:39:03 34° NE 22:40:15 31° ENE
SPOT 1/Viking Rocket 3.6 22:40:49 54° S 22:41:59 75° WSW 22:47:14 10° NNW
Cosmos 1420 Rocket 4.3 22:45:16 50° E 22:45:16 50° E 22:49:51 10° NNE
RESURS DK-1 4.2 22:44:34 10° N 22:47:43 22° NE 22:47:43 22° NE
NOSS 3-4 (A) 4.0 22:41:42 10° NW 22:48:36 61° WSW 22:51:00 42° S
NOSS 3-4 (C) 4.0 22:41:48 10° NW 22:48:43 62° WSW 22:51:06 43° S
Cosmos 1862 4.4 22:45:37 10° NNW 22:49:22 37° W 22:49:46 36° WSW
Cosmos 407 Rocket 4.4 22:45:20 10° NW 22:50:06 39° WSW 22:51:21 33° SW
H-2A R/B 3.3 22:48:27 25° SW 22:50:28 34° W 22:55:00 10° NNW
Meteor 1-26 Rocket 4.2 22:51:00 58° E 22:51:00 58° E 22:56:24 10° NNE
SL-8 R/B 3.6 22:46:17 10° WSW 22:50:55 83° WSW 22:50:55 83° WSW
ERS-1 Rocket 4.2 22:50:13 27° SW 22:52:00 35° W 22:56:37 10° NNW
Cosmos 614 Rocket 4.0 22:49:05 10° NNW 22:54:18 69° WSW 22:54:50 63° SSW
Cosmos 1934 Rocket 3.8 22:54:46 61° SE 22:55:25 66° E 23:01:25 10° NNE
SL-19 R/B 4.4 22:54:32 52° SSW 22:55:43 66° WSW 23:01:19 10° NNW
Cosmos 2237 Rocket 3.8 22:51:34 10° WSW 22:56:37 33° NW 23:01:40 10° NNE
USA 267 3.1 22:50:09 10° NE 22:56:43 73° SE 23:03:14 10° SW
Cosmos 1437 Rocket 3.6 22:54:47 10° N 22:57:36 47° N 22:57:36 47° N
CZ-2C R/B 3.7 22:54:33 10° NNE 22:58:10 31° ENE 22:58:10 31° ENE
Cosmos 2278 Rocket 4.4 22:59:07 10° WNW 23:02:31 16° W 23:05:28 11° SW
Cosmos 405 Rocket 4.1 23:03:13 34° W 23:03:29 34° WNW 23:07:07 10° N
IGS 5A 3.9 23:04:57 59° NW 23:04:57 59° NW 23:08:30 10° NNW
ATLAS 5 CENTAUR R/B 3.0 23:05:49 10° NNW 23:11:24 48° NE 23:12:39 42° ENE
Nimbus 7 Rocket 4.2 23:06:48 10° NNE 23:12:44 79° ESE 23:13:05 75° SE
ATLAS CENTAUR R/B 4.3 23:10:52 10° WNW 23:13:08 15° NNW 23:15:29 10° N
Meteor 1-20 Rocket 4.0 23:09:21 10° N 23:14:47 77° ENE 23:14:47 77° ENE
Cosmos 1821 Rocket 4.3 23:17:40 42° SW 23:19:42 63° W 23:25:59 10° N
Cosmos 1452 Rocket 3.7 23:22:17 61° W 23:22:47 65° WNW 23:28:01 10° NNE
H-2A R/B 4.0 23:28:48 22° NE 23:28:48 22° NE 23:31:31 10° NNE
Cosmos 1862 Rocket 4.5 23:30:50 47° NNW 23:30:50 47° NNW 23:34:06 10° N
USA 234 3.2 23:30:25 64° ESE 23:31:33 83° NE 23:38:07 10° NW
Cosmos 2123 Rocket 4.1 23:27:42 10° NNW 23:33:58 66° W 23:34:41 61° SW
ALOS 2 4.4 23:37:31 24° NE 23:37:31 24° NE 23:40:03 10° N
Cosmos 1850 Rocket 4.4 23:34:32 10° NNW 23:39:00 55° WNW 23:39:00 55° WNW
Terra 3.1 23:43:59 34° W 23:43:59 34° W 23:47:53 10° NNW
Spot 4 4.5 23:47:11 54° NNW 23:47:11 54° NNW 23:50:54 10° NNW
SL-16 R/B 3.7 23:41:17 11° WSW 23:46:06 32° NW 23:51:10 10° NNE
Cosmos 921 Rocket 4.5 23:50:24 34° N 23:50:24 34° N 23:52:58 10° NNE
Meteor 1-11 Rocket 4.2 23:46:06 10° N 23:50:58 50° NE 23:50:58 50° NE
SeaSat 1 3.5 23:52:13 37° NE 23:52:13 37° NE 23:56:23 10° NNW
CZ-2C R/B 3.9 23:55:28 39° WNW 23:55:28 39° WNW 23:59:07 10° NNW
